Regional Weather Roundup
Issued by NWS Newport/Morehead, NC

Current Version | Previous Version | Text Only | Print | Product List | Glossary On
Versions: 1 2 3 4 5 6 7 8 9 10 11 12 13 14 15 16 17 18 19 20 21 22 23 24 25 26 27 28 29 30 31 32 33 34 35 36 37 38 39 40 41 42 43 44 45 46 47 48 49 50
000
ASUS42 KMHX 301822
RWRMHX
WEATHER ROUNDUP FOR EASTERN NORTH CAROLINA
NATIONAL WEATHER SERVICE NEWPORT/MOREHEAD CITY NC
200 PM EDT THU OCT 30 2014

NOTE: "FAIR" INDICATES FEW OR NO CLOUDS BELOW 12,000 FEET
WITH NO SIGNIFICANT WEATHER AND/OR OBSTRUCTIONS TO VISIBILITY

NCZ015>017-031-032-045>047-102-103-301900-
NORTH COAST

CITY           SKY/WX    TMP DP  RH WIND       PRES   REMARKS
EDENTON        MOSUNNY   64  50  59 E6        29.98F
ELIZABETH CITY SUNNY     68  44  42 NE10      29.99F
KITTY HAWK     MOCLDY    65  47  52 NE7       29.96F
MANTEO         PTSUNNY   65  47  51 N13       29.97F

$$

NCZ045>047-081-094-103-104-301900-
CENTRAL COAST

CITY           SKY/WX    TMP DP  RH WIND       PRES   REMARKS
FRISCO         SUNNY     65  51  60 NE14G26   29.95F
SWANQUARTER      N/A     66 N/A N/A NE10G16   29.94S

$$

NCZ095-097-098-100-101-301900-
SOUTHERN COAST

CITY           SKY/WX    TMP DP  RH WIND       PRES   REMARKS
BEAUFORT       MOSUNNY   67  55  65 N15       29.95F
CEDAR ISLAND     N/A     66 N/A N/A N20       30.00S
JACKSONVILLE   MOSUNNY   68  51  54 N14       29.96F
PINEY ISLAND   CLOUDY    68  53  58 NE12      29.96F
WILMINGTON     SUNNY     70  51  51 N13       29.95F


$$

NCZ011>013-027>030-043-044-078>080-089-090>093-098-301900-
COASTAL PLAIN

CITY           SKY/WX    TMP DP  RH WIND       PRES   REMARKS
AHOSKIE        NOT AVBL
CLINTON        SUNNY     69  47  46 N8        29.98F
ELIZABETHTOWN  SUNNY     69  48  45 NE5       29.97F
GOLDSBORO      SUNNY     67  48  50 NE10      29.98F
GREENVILLE     SUNNY     66  46  48 NE8       30.01F
HAVELOCK       PTSUNNY   66  52  60 NE10      29.98F
KENANSVILLE    SUNNY     67  44  43 N9        29.98F
KINSTON        SUNNY     68  46  45 N10       29.99F
NEW BERN       MOSUNNY   68  52  56 NE8       29.99F
RICHLANDS      SUNNY     68  48  49 NE8G17    29.97F
ROCKY MOUNT    PTSUNNY   66  44  45 NE7       30.00F
WASHINGTON     MOSUNNY   65  49  56 NE5       29.98F
WHITEVILLE     SUNNY     68  48  47 N9        29.95F

$$

AMZ130-135-150-152-154-156-158-170-250-252-270-ANZ085-086-088-633-658-670-301900-
MARINE OBSERVATIONS

STATION/POSITION TIME  TEMP    WIND        PRES    WAVE   SWELL
                       AIR SEA DIR/SP/G            HT/PER HT/PER
                 (UTC) (F)     (DEG/KT/KT) (MB)    (FT/S) (FT/S)
CHESAPEAKE LIGHT 1800   60     350/  8/  9 1016.2
64 E VA BEACH    1800   63 67   20/ 14/ 16 1014.6    3/ 6   2/ 7
DUCK             1800   62 67   10/ 13/ 16 1014.3
2 E DUCK         NOT AVBL
10 NE DUCK       1800      67                N/A     4/ 5
OREGON INLET     1800   65 67   10/ 13/ 17 1014.6
13E OREGON INLT  1800      70                N/A     5/ 6
HATTERAS CG      1800   64 69   20/ 18/ 23 1014.5
DIAMOND BUOY     1700   67     360/ 17/ 21 1014.2    4/ 5
17 S OCRACOKE    NOT AVBL
CAPE LOOKOUT     1800   64      30/ 19/ 22 1014.2
BEAUFORT LAB     1800   65 70   20/ 11/ 18 1013.7
30 SE NEW RIVER  1800   65 74   30/ 17/ 21 1013.2    4/ 5
5 SE WRIGHTSVLE  1700   60 71   50/ 14/ 16   N/A
225 S CAPE HAT   1655   77 77  260/  8/ 10 1013.2    2/ 5   2/ 5
41 SE CHARLESTON 1800   69 77  360/ 14/ 16 1013.1    3/ 5   2/ 9

$$



USA.gov is the U.S. government's official web portal to all federal, state and local government web resources and services.